When you browse on this site, cookies collect data to enhance your experience and personalize the content and advertising you see.
Visit our Privacy Policy to learn more. By continuing to use the site, you agree to this use of cookies and data.
  • In Belgien
  • Länderverzeichnis
  • Für 7 Tage
  • Wassertemperatur
  • Wetterkarte
  • Widgets
  • user-avatar
    Anmelden

    Stündliche Wetter Serowe

    Heute, 30 Mai, Samstag

    Zeit Temperatur Niederschläge Wind Luftdruck Luftfeuchtigkeit
    00:00 +13°C° 0 mm 1 m/S 668 mmHg 16%
    01:00 +13°C° 0 mm 1 m/S 668 mmHg 16%
    02:00 +12°C° 0 mm 1 m/S 668 mmHg 17%
    03:00 +12°C° 0 mm 1 m/S 668 mmHg 18%
    04:00 +12°C° 0 mm 1 m/S 668 mmHg 18%
    05:00 +12°C° 0 mm 1 m/S 668 mmHg 18%
    06:00 +13°C° 0 mm 1 m/S 668 mmHg 17%
    07:00 +14°C° 0 mm 1 m/S 669 mmHg 16%
    08:00 +15°C° 0 mm 1 m/S 670 mmHg 16%
    09:00 +18°C° 0 mm 2 m/S 671 mmHg 14%
    10:00 +21°C° 0 mm 3 m/S 672 mmHg 13%
    11:00 +25°C° 0 mm 4 m/S 672 mmHg 11%
    12:00 +26°C° 0 mm 4 m/S 672 mmHg 11%
    13:00 +27°C° 0 mm 3 m/S 671 mmHg 10%
    14:00 +28°C° 0 mm 3 m/S 671 mmHg 10%
    15:00 +27°C° 0 mm 3 m/S 671 mmHg 11%
    16:00 +26°C° 0 mm 3 m/S 671 mmHg 12%
    17:00 +25°C° 0 mm 3 m/S 671 mmHg 13%
    18:00 +21°C° 0 mm 3 m/S 670 mmHg 17%
    19:00 +18°C° 0 mm 3 m/S 670 mmHg 20%
    20:00 +14°C° 0 mm 3 m/S 670 mmHg 24%
    21:00 +14°C° 0 mm 3 m/S 670 mmHg 28%
    22:00 +14°C° 0 mm 2 m/S 670 mmHg 33%
    23:00 +13°C° 0 mm 2 m/S 670 mmHg 38%

    Morgen, 31 Mai, Sonntag

    Zeit Temperatur Niederschläge Wind Luftdruck Luftfeuchtigkeit
    00:00 +12°C° 0 mm 2 m/S 670 mmHg 44%
    01:00 +12°C° 0 mm 2 m/S 670 mmHg 49%
    02:00 +10°C° 0 mm 2 m/S 670 mmHg 55%
    03:00 +10°C° 0 mm 2 m/S 670 mmHg 60%
    04:00 +9°C° 0 mm 2 m/S 670 mmHg 64%
    05:00 +9°C° 0 mm 2 m/S 670 mmHg 68%
    06:00 +10°C° 0 mm 2 m/S 671 mmHg 64%
    07:00 +12°C° 0 mm 2 m/S 671 mmHg 60%
    08:00 +12°C° 0 mm 3 m/S 672 mmHg 56%
    09:00 +16°C° 0 mm 3 m/S 672 mmHg 47%
    10:00 +20°C° 0 mm 4 m/S 673 mmHg 38%
    11:00 +23°C° 0 mm 5 m/S 674 mmHg 28%
    12:00 +25°C° 0 mm 5 m/S 674 mmHg 26%
    13:00 +26°C° 0 mm 4 m/S 673 mmHg 23%
    14:00 +27°C° 0 mm 4 m/S 673 mmHg 20%
    15:00 +26°C° 0 mm 4 m/S 672 mmHg 21%
    16:00 +26°C° 0 mm 3 m/S 672 mmHg 23%
    17:00 +25°C° 0 mm 3 m/S 672 mmHg 24%
    18:00 +21°C° 0 mm 3 m/S 672 mmHg 32%
    19:00 +18°C° 0 mm 3 m/S 671 mmHg 40%
    20:00 +16°C° 0 mm 2 m/S 671 mmHg 48%
    21:00 +15°C° 0 mm 2 m/S 671 mmHg 51%
    22:00 +14°C° 0 mm 2 m/S 672 mmHg 55%
    23:00 +14°C° 0 mm 2 m/S 672 mmHg 59%

    übermorgen, 1 Juni, Montag

    Zeit Temperatur Niederschläge Wind Luftdruck Luftfeuchtigkeit
    00:00 +13°C° 0 mm 2 m/S 671 mmHg 61%
    01:00 +13°C° 0 mm 2 m/S 671 mmHg 62%
    02:00 +12°C° 0 mm 2 m/S 671 mmHg 64%
    03:00 +12°C° 0 mm 2 m/S 671 mmHg 69%
    04:00 +10°C° 0 mm 2 m/S 671 mmHg 73%
    05:00 +10°C° 0 mm 2 m/S 671 mmHg 77%
    06:00 +10°C° 0 mm 2 m/S 671 mmHg 74%
    07:00 +12°C° 0 mm 1 m/S 672 mmHg 72%
    08:00 +13°C° 0 mm 1 m/S 672 mmHg 69%
    09:00 +17°C° 0 mm 2 m/S 673 mmHg 57%
    10:00 +20°C° 0 mm 3 m/S 673 mmHg 46%
    11:00 +23°C° 0 mm 4 m/S 674 mmHg 34%
    12:00 +26°C° 0 mm 3 m/S 674 mmHg 29%
    13:00 +27°C° 0 mm 3 m/S 673 mmHg 25%
    14:00 +28°C° 0 mm 3 m/S 673 mmHg 21%
    15:00 +27°C° 0 mm 3 m/S 672 mmHg 22%
    16:00 +26°C° 0 mm 3 m/S 672 mmHg 23%
    17:00 +25°C° 0 mm 3 m/S 671 mmHg 24%
    18:00 +23°C° 0 mm 2 m/S 671 mmHg 31%
    19:00 +19°C° 0 mm 2 m/S 671 mmHg 37%
    20:00 +16°C° 0 mm 2 m/S 671 mmHg 44%
    21:00 +16°C° 0 mm 2 m/S 671 mmHg 48%
    22:00 +15°C° 0 mm 2 m/S 671 mmHg 52%
    23:00 +14°C° 0 mm 1 m/S 671 mmHg 55%

    2 Juni, Dienstag

    Zeit Temperatur Niederschläge Wind Luftdruck Luftfeuchtigkeit
    00:00 +14°C° 0 mm 1 m/S 671 mmHg 58%
    01:00 +13°C° 0 mm 1 m/S 670 mmHg 60%
    02:00 +13°C° 0 mm 1 m/S 670 mmHg 63%
    03:00 +12°C° 0 mm 1 m/S 670 mmHg 66%
    04:00 +12°C° 0 mm 1 m/S 670 mmHg 69%
    05:00 +11°C° 0 mm 1 m/S 670 mmHg 72%
    06:00 +12°C° 0 mm 1 m/S 670 mmHg 67%
    07:00 +13°C° 0 mm 1 m/S 671 mmHg 63%
    08:00 +14°C° 0 mm 1 m/S 672 mmHg 59%
    09:00 +17°C° 0 mm 2 m/S 672 mmHg 50%
    10:00 +20°C° 0 mm 3 m/S 673 mmHg 42%
    11:00 +24°C° 0 mm 3 m/S 673 mmHg 33%
    12:00 +25°C° 0 mm 4 m/S 673 mmHg 30%
    13:00 +26°C° 0 mm 4 m/S 672 mmHg 26%
    14:00 +27°C° 0 mm 4 m/S 671 mmHg 22%
    15:00 +27°C° 0 mm 4 m/S 671 mmHg 23%
    16:00 +26°C° 0 mm 3 m/S 671 mmHg 25%
    17:00 +25°C° 0 mm 3 m/S 670 mmHg 26%
    18:00 +21°C° 0 mm 3 m/S 670 mmHg 33%
    19:00 +18°C° 0 mm 2 m/S 670 mmHg 40%
    20:00 +16°C° 0 mm 2 m/S 670 mmHg 47%
    21:00 +15°C° 0 mm 2 m/S 670 mmHg 50%
    22:00 +14°C° 0 mm 2 m/S 670 mmHg 53%
    23:00 +14°C° 0 mm 1 m/S 670 mmHg 56%

    3 Juni, Mittwoch

    Zeit Temperatur Niederschläge Wind Luftdruck Luftfeuchtigkeit
    00:00 +13°C° 0 mm 1 m/S 669 mmHg 58%
    01:00 +12°C° 0 mm 1 m/S 669 mmHg 60%
    02:00 +12°C° 0 mm 1 m/S 669 mmHg 63%
    03:00 +11°C° 0 mm 1 m/S 669 mmHg 66%
    04:00 +11°C° 0 mm 1 m/S 668 mmHg 69%
    05:00 +11°C° 0 mm 1 m/S 668 mmHg 72%
    06:00 +12°C° 0 mm 1 m/S 669 mmHg 68%
    07:00 +13°C° 0 mm 1 m/S 670 mmHg 64%
    08:00 +14°C° 0 mm 1 m/S 670 mmHg 60%
    09:00 +17°C° 0 mm 2 m/S 671 mmHg 51%
    10:00 +20°C° 0 mm 2 m/S 671 mmHg 42%
    11:00 +24°C° 0 mm 3 m/S 672 mmHg 32%
    12:00 +25°C° 0 mm 3 m/S 671 mmHg 28%
    13:00 +26°C° 0 mm 4 m/S 671 mmHg 24%
    14:00 +27°C° 0 mm 4 m/S 670 mmHg 20%
    15:00 +26°C° 0 mm 3 m/S 670 mmHg 21%
    16:00 +25°C° 0 mm 3 m/S 670 mmHg 22%
    17:00 +25°C° 0 mm 3 m/S 669 mmHg 23%
    18:00 +21°C° 0 mm 2 m/S 669 mmHg 29%
    19:00 +18°C° 0 mm 2 m/S 669 mmHg 34%
    20:00 +16°C° 0 mm 2 m/S 669 mmHg 40%
    21:00 +15°C° 0 mm 2 m/S 669 mmHg 42%
    22:00 +14°C° 0 mm 1 m/S 669 mmHg 44%
    23:00 +13°C° 0 mm 1 m/S 669 mmHg 47%

    4 Juni, Donnerstag

    Zeit Temperatur Niederschläge Wind Luftdruck Luftfeuchtigkeit
    00:00 +13°C° 0 mm 1 m/S 669 mmHg 49%
    01:00 +12°C° 0 mm 1 m/S 669 mmHg 51%
    02:00 +12°C° 0 mm 1 m/S 669 mmHg 53%
    03:00 +10°C° 0 mm 2 m/S 669 mmHg 56%
    04:00 +10°C° 0 mm 2 m/S 669 mmHg 59%
    05:00 +9°C° 0 mm 2 m/S 669 mmHg 63%
    06:00 +10°C° 0 mm 2 m/S 669 mmHg 62%
    07:00 +11°C° 0 mm 3 m/S 670 mmHg 61%
    08:00 +12°C° 0 mm 3 m/S 671 mmHg 60%
    09:00 +15°C° 0 mm 4 m/S 671 mmHg 53%
    10:00 +19°C° 0 mm 5 m/S 672 mmHg 45%
    11:00 +21°C° 0 mm 6 m/S 672 mmHg 38%
    12:00 +22°C° 0 mm 6 m/S 672 mmHg 34%
    13:00 +23°C° 0 mm 5 m/S 671 mmHg 31%
    14:00 +25°C° 0 mm 5 m/S 671 mmHg 28%
    15:00 +23°C° 0 mm 5 m/S 671 mmHg 30%
    16:00 +22°C° 0 mm 5 m/S 670 mmHg 32%
    17:00 +21°C° 0 mm 4 m/S 670 mmHg 34%
    18:00 +19°C° 0 mm 4 m/S 670 mmHg 41%
    19:00 +16°C° 0 mm 3 m/S 670 mmHg 49%
    20:00 +14°C° 0 mm 2 m/S 670 mmHg 57%
    21:00 +13°C° 0 mm 2 m/S 670 mmHg 62%
    22:00 +12°C° 0 mm 2 m/S 670 mmHg 68%
    23:00 +10°C° 0 mm 2 m/S 670 mmHg 73%
    Mehr zeigen